User: anonymous   Login
Location: Blanot
(47.1713°N, 4.2340°E)
Time: 00:34:04
(UTC+00:00)
Language:

Okean 1-7 - Orbit

View from above orbital plane
View from above orbital plane
View from above satellite
View from above satellite

Ground track
Ground track

The orbit data is extracted from the following two-line orbital elements,

1 23317U 94066A   20273.50782127 +.00000277 +00000-0 +27492-4 0  9991
2 23317 082.5361 069.1660 0020775 043.2109 317.0734 14.87802990404406
Epoch (UTC): 29 September 2020 12:11:15
Eccentricity: 0.0020775
inclination: 82.5361°
perigee height: 590 km
apogee height: 619 km
right ascension of ascending node: 69.1660°
argument of perigee: 43.2109°
revolutions per day: 14.87802990
mean anomaly at epoch: 317.0734°
orbit number at epoch: 40440

The dashed part of the orbit path shows where the satellite is in the earth's shadow,  

DLR